[[{"header":{"parameterUnit":"m.s-1","parameterCategory":1,"la1":30.2991,"la2":30.254,"lo1":-89.0895,"lo2":-89.0444,"dy":0.0017,"dx":0.0017,"nx":28,"ny":28,"refTime":"2023-10-09T21:00:00:Z","depth":0,"parameterNumber":2,"parameterNumberName":"U-component_of_WINDS"},"data":[0,0,0,0,0,0,0,0,0,0,0,0,0,0,0,0,0,0,0,0,0,0,0,0,0,0,0,0,0,0,0,0,0,0,0,0,0,0,0,0,0,0,0,0,0,0,0,0,0,0,0,0,0,0,0,0,0,0,-9.2265,-9.2266,0,-9.2335,-9.2335,-9.2336,-9.2128,-9.2122,-9.2115,-9.2109,-9.218,-9.2188,-9.2195,0,0,0,0,0,0,0,0,0,0,0,0,0,-9.1952,-9.1959,-9.2265,-9.2266,-9.2267,-9.2334,-9.2335,-9.2336,-9.2129,-9.2122,-9.2114,-9.2107,-9.2177,-9.2187,-9.2196,0,0,0,0,0,0,0,0,0,0,0,0,0,-9.2062,-9.1961,-9.2265,-9.2172,-9.2164,-9.2334,-9.2335,-9.2337,-9.2131,-9.2121,-9.2112,-9.2103,-9.2174,-9.2186,-9.2197,-9.2461,0,0,-9.2233,-9.2238,0,0,0,0,0,0,0,0,-9.2056,-9.2073,-9.2185,-9.2179,-9.217,-9.2213,-9.225,-9.2378,-9.2133,-9.2144,-9.2109,-9.2098,-9.2199,-9.2208,-9.2242,-9.2464,-9.2467,-9.2234,-9.2241,-9.2246,-9.225,0,0,0,0,0,0,0,-9.2048,-9.2069,-9.2292,-9.2187,-9.2178,-9.2126,-9.2131,-9.2274,-9.2224,-9.2142,-9.2127,-9.2138,-9.2193,-9.2231,-9.2242,-9.2468,-9.2234,-9.2244,-9.2251,-9.2256,-9.2909,-9.2919,0,0,0,0,0,0,-9.2053,-9.2064,-9.229,-9.2295,-9.2088,-9.2139,-9.2145,-9.2209,-9.2222,-9.2214,-9.2146,-9.2128,-9.2216,-9.2228,-9.2244,-9.2553,-9.2246,-9.2257,-9.2264,-9.2899,-9.2911,-9.2922,0,0,0,0,0,0,-9.2047,-9.2075,-9.2287,-9.2175,-9.2198,-9.2155,-9.2228,-9.2215,-9.2253,-9.2225,-9.2215,-9.2195,-9.2209,-9.2227,-9.2408,-9.2552,-9.2262,-9.2273,-9.2887,-9.2903,-9.2917,-9.3174,0,0,0,0,0,0,-9.2039,-9.2074,-9.2174,-9.2179,-9.2205,-9.2452,-9.2237,-9.2224,-9.2274,-9.2251,-9.2267,-9.2261,-9.2203,-9.2392,-9.242,-9.2563,-9.2282,-9.2873,-9.2894,-9.2912,-9.3152,-9.3196,-9.3233,0,0,0,0,0,-9.2029,-9.2244,-9.2181,-9.2209,-9.233,-9.2461,-9.2476,-9.2404,-9.2286,-9.2386,-9.2368,-9.226,-9.2532,-9.2412,-9.2442,-9.2591,-9.2864,-9.2888,-9.291,-9.3134,-9.3187,-9.3232,0,0,0,0,0,0,-9.2257,-9.2243,-9.2172,-9.2396,-9.2431,-9.2426,-9.255,-9.2463,-9.2533,-9.2508,-9.2416,-9.2422,-9.262,-9.2623,-9.249,-9.2846,-9.2678,-9.2708,-9.2837,-9.2888,-9.2928,-9.2923,-9.2292,0,0,0,0,0,-9.2333,-9.2442,-9.2423,-9.2622,-9.2643,-9.2594,-9.2649,-9.259,-9.2623,-9.2637,-9.2632,-9.2668,-9.276,-9.2824,-9.2908,-9.3151,-9.3151,-9.3268,-9.3309,-9.3342,-9.337,-9.3498,-9.355,-9.2999,-9.2998,-9.2998,0,0,-9.2492,-9.2498,-9.2572,-9.2668,-9.2689,-9.2803,-9.2608,-9.2737,-9.282,-9.2656,-9.2827,-9.2825,-9.2859,-9.3072,-9.3166,-9.3081,-9.3522,-9.3372,-9.3399,-9.3408,-9.3528,-9.358,-9.3626,-9.3014,-9.3012,-9.3009,0,0,-9.284,-9.2856,-9.3023,-9.3047,-9.3081,-9.3047,-9.3087,-9.3095,-9.3087,-9.3257,-9.3136,-9.3234,-9.3396,-9.3425,-9.3461,-9.382,-9.3724,-9.385,-9.4063,-9.4189,-9.4233,-9.4271,-9.4399,-9.4446,-9.3877,-9.3878,-9.3878,0,-9.3034,-9.3201,-9.312,-9.3257,-9.3303,-9.316,-9.3328,-9.3356,-9.3416,-9.345,-9.3354,-9.3554,-9.3567,-9.3785,-9.3873,-9.3906,-9.395,-9.3848,-9.4233,-9.4271,-9.4305,-9.4426,-9.4475,-9.3893,-9.3891,-9.389,-9.3888,0,-9.3437,-9.3555,-9.3686,-9.3748,-9.3808,-9.396,-9.3902,-9.3972,-9.3909,-9.3885,-9.4059,-9.4069,-9.4153,-9.42,-9.4139,-9.441,-9.4356,-9.4249,-9.4077,-9.4374,-9.4487,-9.4532,-9.3915,-9.3909,-9.3905,-9.3901,0,0,-9.3932,-9.3946,-9.3996,-9.4022,-9.4048,-9.4138,-9.4283,-9.4365,-9.4427,-9.4473,-9.4593,-9.4733,-9.4633,-9.4675,-9.4615,-9.4727,-9.5011,-9.4604,-9.4604,-9.468,-9.531,-9.5392,-9.5447,-9.4946,-9.4955,-9.4962,-9.5307,0,-9.4275,-9.4525,-9.4456,-9.4706,-9.4814,-9.4679,-9.4805,-9.4835,-9.4817,-9.4905,-9.4883,-9.4984,-9.4844,-9.4868,-9.4972,-9.4954,-9.5136,-9.4928,-9.5057,-9.5063,-9.5054,-9.5506,-9.5593,-9.5918,-9.5351,-9.5358,-9.5363,0,-9.471,-9.4773,-9.5034,-9.5042,-9.5084,-9.52,-9.5269,-9.5355,-9.5385,-9.5363,-9.541,-9.5328,-9.5471,-9.5299,-9.5494,-9.5355,-9.5403,-9.5402,-9.5413,-9.5423,-9.5232,-9.5529,-9.602,-9.607,-9.5432,-9.5426,-9.5421,0,-9.5046,-9.5195,-9.5371,-9.5397,-9.5411,-9.5495,-9.5505,-9.5525,-9.5579,-9.5639,-9.5673,-9.5749,-9.5792,-9.5852,-9.5793,-9.5673,-9.5998,-9.5821,-9.5984,-9.5987,-9.606,-9.6056,-9.6568,-9.6091,-9.609,-9.6089,-9.6088,0,-9.5437,-9.5602,-9.5522,-9.563,-9.5811,-9.5729,-9.591,-9.5904,-9.5924,-9.6028,-9.5915,-9.6016,-9.5931,-9.6024,-9.5978,-9.6147,-9.6167,-9.6153,-9.6139,-9.6164,-9.6166,-9.6195,-9.6171,-9.6102,-9.6099,-9.6096,-9.6094,0,-9.5843,-9.5796,-9.5979,-9.5976,-9.598,-9.6113,-9.6111,-9.621,-9.6183,-9.6316,-9.6343,-9.63,-9.6403,-9.635,-9.6456,-9.6425,-9.6645,-9.66,-9.6635,-9.6623,-9.679,-9.6776,-9.7339,-9.7409,-9.6886,-9.6891,-9.6896,0,-9.6097,-9.622,-9.6232,-9.6293,-9.6311,-9.6412,-9.6466,-9.639,-9.645,-9.6494,-9.6589,-9.6682,-9.6753,-9.6924,-9.6902,-9.6983,-9.694,-9.7132,-9.6951,-9.6972,-9.6944,-9.6937,-9.6949,-9.7168,-9.7174,-9.7179,-9.7183,0,-9.6552,-9.6522,-9.6604,-9.6679,-9.6747,-9.6802,-9.6847,-9.6904,-9.6829,-9.6903,-9.7007,-9.7062,-9.7171,-9.7265,-9.7335,-9.7344,-9.7253,-9.724,-9.7282,-9.7309,-9.7325,-9.7319,-9.6735,-9.7228,-9.7223,-9.722,-9.7218,-9.7216,-9.6889,-9.6993,-9.7017,-9.7113,-9.7139,-9.7184,-9.7277,-9.7262,-9.7347,-9.743,-9.7379,-9.7502,-9.7528,-9.7613,-9.7634,-9.7728,-9.7652,-9.7713,-9.7728,-9.7745,-9.7768,-9.731,-9.774,-9.7739,-9.7738,-9.7737,-9.7736,0,-9.7339,-9.7347,-9.7436,-9.7503,-9.7579,-9.7485,-9.753,-9.7599,-9.7709,-9.7741,-9.7813,-9.7932,-9.8023,-9.8009,-9.8091,-9.8169,-9.8129,-9.8194,-9.8187,-9.8191,-9.7831,-9.7787,-9.8225,-9.8224,-9.8224,-9.8224,-9.8224,-9.8224,-9.7581,-9.7752,-9.7726,-9.7908,-9.7915,-9.8034,-9.8068,-9.8109,-9.8134,-9.8273,-9.8348,-9.8338,-9.8351,-9.8434,-9.8513,-9.8506,-9.8542,-9.8622,-9.86,-9.8265,-9.8216,-9.817,-9.8128,-9.863,-9.8631,-9.8952,-9.8955,-9.8957]},{"header":{"parameterUnit":"m.s-1","parameterCategory":1,"la1":30.2991,"la2":30.254,"lo1":-89.0895,"lo2":-89.0444,"dy":0.0017,"dx":0.0017,"nx":28,"ny":28,"refTime":"2023-10-09T21:00:00:Z","depth":0,"parameterNumber":3,"parameterNumberName":"V-component_of_WINDS"},"data":[0,0,0,0,0,0,0,0,0,0,0,0,0,0,0,0,0,0,0,0,0,0,0,0,0,0,0,0,0,0,0,0,0,0,0,0,0,0,0,0,0,0,0,0,0,0,0,0,0,0,0,0,0,0,0,0,0,0,-3.2786,-3.2786,0,-3.2782,-3.2781,-3.2781,-3.2783,-3.2783,-3.2783,-3.2783,-3.2777,-3.2777,-3.2777,0,0,0,0,0,0,0,0,0,0,0,0,0,-3.2795,-3.2795,-3.2786,-3.2786,-3.2786,-3.2782,-3.2781,-3.2781,-3.2783,-3.2783,-3.2783,-3.2783,-3.2777,-3.2777,-3.2777,0,0,0,0,0,0,0,0,0,0,0,0,0,-3.2791,-3.2795,-3.2786,-3.2786,-3.2786,-3.2782,-3.2781,-3.2781,-3.2783,-3.2783,-3.2783,-3.2783,-3.2777,-3.2777,-3.2777,-3.2771,0,0,-3.2775,-3.2775,0,0,0,0,0,0,0,0,-3.2791,-3.279,-3.2786,-3.2786,-3.2786,-3.2783,-3.2782,-3.2778,-3.2783,-3.2784,-3.2783,-3.2783,-3.2779,-3.2778,-3.2777,-3.2771,-3.2771,-3.2775,-3.2775,-3.2775,-3.2775,0,0,0,0,0,0,0,-3.2791,-3.279,-3.2784,-3.2786,-3.2786,-3.2786,-3.2785,-3.2781,-3.2781,-3.2784,-3.2784,-3.2783,-3.2779,-3.2777,-3.2777,-3.2771,-3.2775,-3.2775,-3.2775,-3.2775,-3.2758,-3.2758,0,0,0,0,0,0,-3.2792,-3.2791,-3.2785,-3.2784,-3.2789,-3.2786,-3.2785,-3.2784,-3.2781,-3.278,-3.2783,-3.2783,-3.2778,-3.2777,-3.2777,-3.2769,-3.2775,-3.2775,-3.2774,-3.2758,-3.2758,-3.2758,0,0,0,0,0,0,-3.2792,-3.2791,-3.2785,-3.2788,-3.2787,-3.2785,-3.2784,-3.2784,-3.2782,-3.278,-3.278,-3.2782,-3.2778,-3.2777,-3.2772,-3.2769,-3.2774,-3.2774,-3.2759,-3.2758,-3.2758,-3.2755,0,0,0,0,0,0,-3.2792,-3.2791,-3.279,-3.2787,-3.2787,-3.2781,-3.2784,-3.2783,-3.2782,-3.2782,-3.2779,-3.2779,-3.2778,-3.2773,-3.2772,-3.2769,-3.2774,-3.2759,-3.2758,-3.2758,-3.2755,-3.2754,-3.2754,0,0,0,0,0,-3.2792,-3.2789,-3.279,-3.2789,-3.2785,-3.2781,-3.278,-3.278,-3.2782,-3.278,-3.2778,-3.2779,-3.277,-3.2772,-3.2771,-3.2768,-3.2759,-3.2759,-3.2758,-3.2755,-3.2755,-3.2754,0,0,0,0,0,0,-3.2791,-3.2789,-3.279,-3.2786,-3.2783,-3.2781,-3.2779,-3.2779,-3.2776,-3.2777,-3.2776,-3.2775,-3.277,-3.2768,-3.2771,-3.2762,-3.2764,-3.2764,-3.2763,-3.2762,-3.2761,-3.2761,-3.2774,0,0,0,0,0,-3.2791,-3.2788,-3.2786,-3.2783,-3.2782,-3.278,-3.2779,-3.2778,-3.2776,-3.2775,-3.2773,-3.277,-3.2767,-3.2764,-3.2761,-3.2755,-3.2753,-3.2752,-3.2751,-3.2751,-3.275,-3.2745,-3.2744,-3.2756,-3.2756,-3.2756,0,0,-3.2789,-3.2788,-3.2786,-3.2783,-3.2781,-3.2777,-3.278,-3.2776,-3.2773,-3.2774,-3.2769,-3.2768,-3.2764,-3.2759,-3.2756,-3.2757,-3.2746,-3.275,-3.275,-3.2749,-3.2744,-3.2743,-3.2742,-3.2756,-3.2756,-3.2756,0,0,-3.2785,-3.2784,-3.2781,-3.2778,-3.2776,-3.2774,-3.2774,-3.2771,-3.277,-3.2765,-3.2765,-3.2761,-3.2755,-3.2752,-3.275,-3.2743,-3.2743,-3.2741,-3.2738,-3.2733,-3.2732,-3.2731,-3.2727,-3.2726,-3.2741,-3.2741,-3.2741,0,-3.2784,-3.2779,-3.2779,-3.2775,-3.2773,-3.2773,-3.2769,-3.2767,-3.2763,-3.2761,-3.2762,-3.2754,-3.2752,-3.2744,-3.2742,-3.2741,-3.2739,-3.2742,-3.2732,-3.2731,-3.273,-3.2726,-3.2725,-3.2741,-3.2741,-3.2741,-3.2741,0,-3.2777,-3.2773,-3.2771,-3.2767,-3.2764,-3.276,-3.2758,-3.2756,-3.2755,-3.2754,-3.2747,-3.2745,-3.274,-3.2738,-3.2738,-3.273,-3.2731,-3.2732,-3.2735,-3.2729,-3.2725,-3.2724,-3.274,-3.274,-3.274,-3.274,0,0,-3.2773,-3.2767,-3.2766,-3.2764,-3.276,-3.2757,-3.2752,-3.2747,-3.2744,-3.2741,-3.2737,-3.2731,-3.2731,-3.2729,-3.2728,-3.2724,-3.2716,-3.2725,-3.2725,-3.2723,-3.2706,-3.2704,-3.2703,-3.2716,-3.2716,-3.2716,-3.2706,0,-3.2767,-3.2759,-3.2758,-3.2751,-3.2747,-3.2746,-3.2742,-3.2739,-3.2737,-3.2732,-3.273,-3.2725,-3.2727,-3.2725,-3.2721,-3.2718,-3.2713,-3.2719,-3.2711,-3.2711,-3.2711,-3.2701,-3.27,-3.269,-3.2704,-3.2704,-3.2704,0,-3.276,-3.2756,-3.2749,-3.2744,-3.2742,-3.2738,-3.2733,-3.2729,-3.2725,-3.2723,-3.2719,-3.2719,-3.2712,-3.2715,-3.2706,-3.271,-3.2707,-3.2705,-3.2704,-3.2703,-3.2707,-3.2698,-3.2687,-3.2685,-3.2702,-3.2702,-3.2702,0,-3.2757,-3.275,-3.2744,-3.2742,-3.2736,-3.2733,-3.273,-3.2726,-3.2723,-3.2718,-3.2715,-3.271,-3.2706,-3.2702,-3.2699,-3.2702,-3.2689,-3.2692,-3.2687,-3.2687,-3.2684,-3.2684,-3.2671,-3.2683,-3.2683,-3.2683,-3.2683,0,-3.275,-3.2746,-3.2742,-3.2738,-3.2732,-3.273,-3.2724,-3.2721,-3.2717,-3.2712,-3.2711,-3.2706,-3.2703,-3.2697,-3.2695,-3.2686,-3.2685,-3.2683,-3.2682,-3.2683,-3.2683,-3.268,-3.268,-3.2683,-3.2683,-3.2683,-3.2683,0,-3.2746,-3.2743,-3.2736,-3.2731,-3.2729,-3.2725,-3.272,-3.2716,-3.2713,-3.2707,-3.2705,-3.2701,-3.2694,-3.269,-3.2682,-3.268,-3.267,-3.2671,-3.2672,-3.2671,-3.2665,-3.2666,-3.265,-3.2647,-3.2662,-3.2661,-3.2661,0,-3.2742,-3.2738,-3.2732,-3.2728,-3.2725,-3.272,-3.2716,-3.2714,-3.271,-3.2703,-3.2699,-3.2692,-3.2686,-3.2675,-3.267,-3.2663,-3.2663,-3.2657,-3.2662,-3.2661,-3.2661,-3.2661,-3.266,-3.2657,-3.2657,-3.2656,-3.2656,0,-3.2735,-3.2733,-3.2728,-3.2722,-3.2717,-3.2713,-3.2708,-3.2705,-3.2701,-3.2696,-3.2689,-3.2684,-3.2675,-3.2667,-3.2659,-3.2656,-3.2655,-3.2655,-3.2653,-3.2653,-3.2653,-3.2652,-3.2669,-3.2655,-3.2655,-3.2656,-3.2656,-3.2656,-3.273,-3.2725,-3.272,-3.2714,-3.271,-3.2705,-3.27,-3.2696,-3.269,-3.2682,-3.2681,-3.2672,-3.2666,-3.2655,-3.2651,-3.2644,-3.2645,-3.2643,-3.2642,-3.2641,-3.264,-3.2655,-3.2643,-3.2643,-3.2643,-3.2643,-3.2643,0,-3.2722,-3.2718,-3.2712,-3.2705,-3.2699,-3.2699,-3.2693,-3.2688,-3.2681,-3.2675,-3.2669,-3.266,-3.2652,-3.2646,-3.2638,-3.2633,-3.2632,-3.2631,-3.263,-3.2629,-3.264,-3.2642,-3.2631,-3.2631,-3.2631,-3.2631,-3.2631,-3.2631,-3.2717,-3.2709,-3.2707,-3.2696,-3.2692,-3.2684,-3.268,-3.2675,-3.267,-3.266,-3.2653,-3.2649,-3.2643,-3.2634,-3.2626,-3.2624,-3.2621,-3.2619,-3.2617,-3.2628,-3.2629,-3.263,-3.2632,-3.2619,-3.2619,-3.2607,-3.2607,-3.2606]}]]